This is the latest recevied weather packets stored in our database for station/object IZ4UFQ-10. If no packets are shown the sender has not sent any weather packets the latest 10 day(s).
| Time | Temp. | Humidity | Pressure | Rain* | Wind** | Luminosity | Snow |
|---|---|---|---|---|---|---|---|
| 1777974676 | 15.56° C | 91% | 1012.9 hPa | 1.02 mm | - | 86 W/m² | - |
| 1777974376 | 15.56° C | 91% | 1012.9 hPa | 0.51 mm | - | 83 W/m² | - |
| 1777974076 | 15.56° C | 91% | 1012.7 hPa | 0.25 mm | - | 86 W/m² | - |
| 1777973776 | 15.56° C | 90% | 1012.7 hPa | 0.25 mm | - | 72 W/m² | - |
| 1777973475 | 15.56° C | 90% | 1012.7 hPa | 0.25 mm | - | 67 W/m² | - |
| 1777973175 | 15.56° C | 91% | 1012.6 hPa | 0.25 mm | - | 132 W/m² | - |
| 1777972875 | 15.56° C | 90% | 1012.5 hPa | 0.25 mm | - | 179 W/m² | - |
| 1777972574 | 15.56° C | 91% | 1012.5 hPa | 0 mm | - | 234 W/m² | - |
| 1777972274 | 15.56° C | 91% | 1012.7 hPa | 0 mm | - | 239 W/m² | - |
| 1777971974 | 15.56° C | 91% | 1012.9 hPa | 0 mm | - | 304 W/m² | - |
| 1777971674 | 15° C | 91% | 1013.1 hPa | 0 mm | - | 318 W/m² | - |
| 1777971373 | 15° C | 91% | 1012.9 hPa | 0 mm | - | 186 W/m² | - |
| 1777971073 | 15° C | 91% | 1013.2 hPa | 0 mm | - | 141 W/m² | - |
| 1777970773 | 15° C | 91% | 1013.3 hPa | 0 mm | - | 69 W/m² | - |
| 1777970472 | 15° C | 91% | 1013.2 hPa | 0 mm | - | 58 W/m² | - |
| 1777970172 | 15° C | 91% | 1013.1 hPa | 0 mm | - | 65 W/m² | - |
| 1777969872 | 15° C | 91% | 1013 hPa | 0 mm | - | 70 W/m² | - |
| 1777969572 | 15° C | 91% | 1012.9 hPa | 0 mm | - | 77 W/m² | - |
| 1777969271 | 15° C | 92% | 1012.8 hPa | 0 mm | - | 91 W/m² | - |
| 1777968971 | 15° C | 92% | 1012.7 hPa | 0 mm | - | 123 W/m² | - |
| 1777968671 | 15° C | 91% | 1012.7 hPa | 0 mm | - | 156 W/m² | - |
| 1777968370 | 15° C | 92% | 1012.5 hPa | 0 mm | - | 285 W/m² | - |
| 1777968070 | 14.44° C | 92% | 1012.6 hPa | 0 mm | - | 290 W/m² | - |
| 1777967770 | 14.44° C | 91% | 1012.7 hPa | 0 mm | - | 541 W/m² | - |
| 1777967469 | 14.44° C | 91% | 1012.7 hPa | 0.25 mm | - | 327 W/m² | - |
* Rain latest hour (hover to see other rain measurements)
** Current wind speed in m/s (hover to see current wind gust speed)